Ogallala, NE

3:54 AM MST on November 18, 2017 (GMT -0700)
Searle

Weather History for KOGA - April, 2013

Change the Weather History Date:

Friday, April 12, 2013

  Actual Average Record
Temperature  
Mean Temperature 38 °F -  
Max Temperature 47 °F 62 °F 85 °F (1982)
Min Temperature 30 °F 33 °F 12 °F (1997)
Degree Days  
Heating Degree Days 26    
Moisture  
Dew Point 31 °F    
Average Humidity 77    
Maximum Humidity 93    
Minimum Humidity 56    
Precipitation  
Precipitation 0.00 in - - ()
Sea Level Pressure  
Sea Level Pressure 29.93 in    
Wind  
Wind Speed 8 mph (NW)    
Max Wind Speed 21 mph    
Max Gust Speed 26 mph    
Visibility 10 miles    
Events Rain    
Averages and records for this station are not official NWS values.
T = Trace of Precipitation, MM = Missing Value Source: NWS Daily Summary

Daily Weather History Graph

Daily Weather History Graph

Search for Another Location

Airport or City:

Trip Planner

Search our weather history database for the weather conditions in past years. The results will help you decide how hot, cold, wet, or windy it might be!

Date:

Astronomy

Apr. 12, 2013 Rise Set
Actual Time 6:12 AM MDT 7:24 PM MDT
Civil Twilight 5:43 AM MDT 7:52 PM MDT
Nautical Twilight 5:09 AM MDT 8:26 PM MDT
Astronomical Twilight 4:34 AM MDT 9:02 PM MDT
Moon 7:22 AM MDT (4/12) 9:58 PM MDT (4/12)
Length of Visible Light 14h 08m
Length of Day
13h 12m
Waxing Crescent, 5% of the Moon is Illuminated
Apr 12
Waxing Crescent
Apr 18
First Quarter
Apr 25
Full
May 2
Last Quarter
May 9
New

Hourly Weather History & Observations

Time (MDT) Temp. Windchill Dew Point Humidity Pressure Visibility Wind Dir Wind Speed Gust Speed Precip Events Conditions
12:15 AM 32.4 °F 26.0 °F 25.9 °F 77% 29.87 in 10.0 mi WNW 6.9 mph - N/A   Overcast
12:35 AM 32.4 °F 26.0 °F 26.4 °F 79% 29.88 in 10.0 mi WNW 6.9 mph - N/A   Overcast
12:55 AM 32.4 °F 27.9 °F 26.6 °F 79% 29.88 in 10.0 mi WNW 4.6 mph - N/A   Overcast
1:15 AM 32.4 °F 26.9 °F 26.4 °F 79% 29.88 in 10.0 mi WNW 5.8 mph - N/A   Overcast
1:35 AM 32.0 °F - 27.0 °F 82% 29.88 in 10.0 mi Calm Calm - N/A   Mostly Cloudy
1:55 AM 31.1 °F 26.4 °F 26.6 °F 83% 29.88 in 10.0 mi West 4.6 mph - N/A   Scattered Clouds
2:15 AM 31.1 °F 24.5 °F 27.1 °F 85% 29.86 in 10.0 mi West 6.9 mph - N/A   Scattered Clouds
2:35 AM 33.1 °F 22.6 °F 29.1 °F 85% 29.88 in 10.0 mi WNW 16.1 mph 19.6 mph N/A   Mostly Cloudy
2:55 AM 34.0 °F 23.8 °F 29.7 °F 84% 29.87 in 10.0 mi WNW 16.1 mph 23.0 mph N/A   Mostly Cloudy
3:15 AM 34.7 °F 25.5 °F 29.8 °F 82% 29.87 in 10.0 mi NNW 13.8 mph - N/A   Mostly Cloudy
3:35 AM 34.9 °F 27.7 °F 30.2 °F 83% 29.88 in 10.0 mi NW 9.2 mph - N/A   Overcast
3:55 AM 34.2 °F 26.8 °F 30.0 °F 85% 29.88 in 10.0 mi West 9.2 mph - N/A   Overcast
4:15 AM 33.1 °F 27.7 °F 30.0 °F 89% 29.88 in 10.0 mi West 5.8 mph - N/A   Overcast
4:35 AM 32.5 °F 26.2 °F 30.0 °F 90% 29.88 in 10.0 mi West 6.9 mph - N/A   Overcast
4:55 AM 32.4 °F 26.0 °F 29.7 °F 90% 29.88 in 10.0 mi West 6.9 mph - N/A   Overcast
5:15 AM 32.0 °F 27.5 °F 29.1 °F 89% 29.88 in 10.0 mi WSW 4.6 mph - N/A   Scattered Clouds
5:35 AM 31.5 °F 28.1 °F 28.9 °F 90% 29.86 in 10.0 mi WSW 3.5 mph - N/A   Clear
5:55 AM 30.7 °F 24.9 °F 28.4 °F 91% 29.86 in 10.0 mi WSW 5.8 mph - N/A   Clear
6:15 AM 30.4 °F 25.6 °F 27.7 °F 90% 29.87 in 10.0 mi WNW 4.6 mph - N/A   Clear
6:35 AM 30.0 °F 26.5 °F 27.7 °F 91% 29.88 in 10.0 mi West 3.5 mph - N/A   Clear
6:55 AM 30.9 °F - 28.2 °F 90% 29.88 in 10.0 mi Calm Calm - N/A   Clear
7:15 AM 32.0 °F 28.7 °F 29.1 °F 89% 29.89 in 10.0 mi WSW 3.5 mph - N/A   Clear
7:35 AM 32.7 °F - 30.0 °F 90% 29.89 in 10.0 mi Calm Calm - N/A   Clear
7:55 AM 34.0 °F - 30.6 °F 87% 29.90 in 10.0 mi Calm Calm - N/A   Clear
8:15 AM 36.9 °F 30.1 °F 31.3 °F 80% 29.90 in 10.0 mi NW 9.2 mph - N/A   Clear
8:55 AM 39.2 °F 33.6 °F 30.7 °F 72% 29.90 in 10.0 mi NW 8.1 mph - N/A   Clear
9:15 AM 40.1 °F 35.3 °F 31.1 °F 70% 29.91 in 10.0 mi NW 6.9 mph - N/A   Clear
9:35 AM 41.5 °F 36.4 °F 31.8 °F 68% 29.91 in 10.0 mi NNW 8.1 mph - N/A   Clear
9:55 AM 42.6 °F 36.8 °F 31.8 °F 66% 29.91 in 10.0 mi NNW 10.4 mph - N/A   Clear
10:15 AM 43.7 °F 38.1 °F 32.2 °F 64% 29.91 in 10.0 mi NNW 10.4 mph - N/A   Clear
10:35 AM 44.2 °F 38.4 °F 32.5 °F 63% 29.92 in 10.0 mi North 11.5 mph - N/A   Clear
10:55 AM 45.1 °F 39.9 °F 32.7 °F 62% 29.92 in 10.0 mi NNW 10.4 mph - N/A   Clear
11:15 AM 46.2 °F 40.5 °F 33.3 °F 61% 29.93 in 10.0 mi North 12.7 mph 17.3 mph N/A   Clear
11:35 AM 46.2 °F 40.8 °F 32.7 °F 59% 29.93 in 10.0 mi North 11.5 mph 17.3 mph N/A   Scattered Clouds
11:55 AM 46.8 °F - 32.9 °F 59% 29.93 in 10.0 mi North 11.5 mph 16.1 mph N/A   Mostly Cloudy
12:15 PM 47.5 °F - 33.4 °F 58% 29.93 in 10.0 mi NNW 12.7 mph 18.4 mph N/A   Mostly Cloudy
12:35 PM 47.1 °F - 34.3 °F 61% 29.92 in 10.0 mi NNW 11.5 mph 16.1 mph N/A   Scattered Clouds
12:55 PM 46.9 °F - 34.0 °F 61% 29.92 in 10.0 mi NNW 12.7 mph - N/A   Clear
1:15 PM 45.9 °F 40.4 °F 33.3 °F 61% 29.93 in 10.0 mi NNW 11.5 mph - N/A   Scattered Clouds
1:35 PM 46.8 °F - 33.4 °F 60% 29.94 in 10.0 mi NNW 8.1 mph - N/A   Mostly Cloudy
1:55 PM 47.3 °F - 33.1 °F 58% 29.95 in 10.0 mi NW 13.8 mph - N/A   Mostly Cloudy
2:15 PM 44.1 °F 35.7 °F 32.9 °F 65% 29.97 in 10.0 mi NW 20.7 mph 26.5 mph N/A   Light Drizzle
2:35 PM 42.8 °F 35.1 °F 34.0 °F 71% 29.98 in 10.0 mi NNW 16.1 mph - N/A   Light Drizzle
2:55 PM 42.1 °F 35.2 °F 35.4 °F 77% 29.98 in 10.0 mi NNW 12.7 mph - N/A Rain Light Rain
3:15 PM 43.0 °F 36.8 °F 35.2 °F 74% 29.97 in 10.0 mi NW 11.5 mph - N/A   Mostly Cloudy
3:35 PM 44.6 °F 39.7 °F 35.8 °F 71% 29.96 in 10.0 mi NW 9.2 mph - N/A   Scattered Clouds
3:55 PM 43.5 °F 37.9 °F 35.8 °F 74% 29.96 in 10.0 mi NNW 10.4 mph - N/A Rain Light Rain
4:15 PM 43.2 °F 35.3 °F 35.4 °F 74% 29.96 in 10.0 mi NW 17.3 mph 24.2 mph N/A   Overcast
4:35 PM 44.8 °F 38.3 °F 35.4 °F 70% 29.96 in 10.0 mi NW 13.8 mph 19.6 mph N/A   Mostly Cloudy
4:55 PM 45.7 °F 41.0 °F 34.3 °F 65% 29.96 in 10.0 mi NW 9.2 mph 13.8 mph N/A   Clear
5:15 PM 46.2 °F 40.1 °F 33.8 °F 62% 29.96 in 10.0 mi NNW 13.8 mph - N/A   Scattered Clouds
5:35 PM 46.6 °F - 32.7 °F 59% 29.96 in 10.0 mi NW 17.3 mph - N/A   Clear
5:55 PM 45.9 °F 41.2 °F 32.5 °F 60% 29.96 in 10.0 mi NW 9.2 mph - N/A   Scattered Clouds
6:15 PM 45.9 °F 40.8 °F 32.0 °F 58% 29.96 in 10.0 mi NW 10.4 mph - N/A   Overcast
6:35 PM 45.7 °F 40.2 °F 30.7 °F 56% 29.95 in 10.0 mi NNW 11.5 mph - N/A   Scattered Clouds
6:55 PM 44.2 °F 39.2 °F 30.9 °F 60% 29.95 in 10.0 mi NW 9.2 mph - N/A   Clear
7:15 PM 41.5 °F 37.8 °F 31.8 °F 68% 29.96 in 10.0 mi NW 5.8 mph - N/A   Clear
7:35 PM 38.1 °F 33.7 °F 31.6 °F 77% 29.96 in 10.0 mi NW 5.8 mph - N/A   Clear
7:55 PM 36.1 °F 31.4 °F 30.9 °F 81% 29.97 in 10.0 mi NW 5.8 mph - N/A   Clear
8:15 PM 34.2 °F 30.0 °F 30.0 °F 85% 29.97 in 10.0 mi NW 4.6 mph - N/A   Clear
8:35 PM 33.6 °F 29.4 °F 30.2 °F 87% 29.97 in 10.0 mi WNW 4.6 mph - N/A   Clear
8:55 PM 32.5 °F - 29.8 °F 90% 29.97 in 10.0 mi Calm Calm - N/A   Clear
9:15 PM 32.5 °F 27.1 °F 30.2 °F 91% 29.99 in 10.0 mi West 5.8 mph - N/A   Clear
9:35 PM 32.0 °F - 29.5 °F 90% 29.99 in 10.0 mi Calm Calm - N/A   Clear
9:55 PM 31.5 °F 28.1 °F 28.8 °F 90% 30.00 in 10.0 mi WSW 3.5 mph - N/A   Clear
10:15 PM 32.0 °F 27.5 °F 29.8 °F 92% 30.00 in 10.0 mi West 4.6 mph - N/A   Clear
10:35 PM 31.8 °F 28.5 °F 29.3 °F 90% 30.01 in 10.0 mi NNW 3.5 mph - N/A   Clear
10:55 PM 32.9 °F 26.7 °F 30.9 °F 92% 30.02 in 10.0 mi NNW 6.9 mph - N/A   Clear
11:15 PM 34.5 °F 30.4 °F 31.5 °F 89% 30.01 in 10.0 mi West 4.6 mph - N/A   Clear
11:35 PM 32.2 °F - 29.8 °F 91% 30.01 in 10.0 mi Calm Calm - N/A   Clear
11:55 PM 32.5 °F - 30.7 °F 93% 30.01 in 10.0 mi Calm Calm - N/A   Clear